Regional Weather Roundup
Issued by NWS Green Bay, WI

Home | Current Version | Previous Version | Graphics & Text | Print | Product List | Glossary Off
Versions: 1 2 3 4 5 6 7 8 9 10 11 12 13 14 15 16 17 18 19 20 21 22 23 24 25 26 27 28 29 30 31 32 33 34 35 36 37 38 39 40 41 42 43 44 45 46 47 48 49 50

000
ASUS43 KGRB 220559
RWRGRB

NORTH-CENTRAL AND NORTHEAST WISCONSIN REGIONAL WEATHER ROUNDUP
NATIONAL WEATHER SERVICE GREEN BAY WI
1200 AM CST MON DEC 22 2014

WIZ005-009-010>012-018-019-220700-
NORTH CENTRAL WISCONSIN

CITY           SKY/WX    TMP DP  RH WIND       PRES   REMARKS
IRONWOOD       CLOUDY    36  34  93 S10       29.76F
MANITOWISH WTR NOT AVBL
ARBOR VITAE    NOT AVBL
EAGLE RIVER    NOT AVBL
LAND O LAKES   NOT AVBL
RHINELANDER    CLOUDY    32  31  96 S10       29.84S FOG
PHILLIPS       NOT AVBL
ANTIGO         NOT AVBL
TOMAHAWK       NOT AVBL
MERRILL        NOT AVBL
$$

WIZ013-073-220700-
NORTHEAST WISCONSIN

CITY           SKY/WX    TMP DP  RH WIND       PRES   REMARKS
IRON MOUNTAIN  LGT SNOW  33  31  92 S14G22    29.90R FOG
MARINETTE      CLOUDY    36  32  87 SW14      29.96S
$$

WIZ017-030-035>037-045-220700-
CENTRAL WISCONSIN

CITY           SKY/WX    TMP DP  RH WIND       PRES   REMARKS
MEDFORD        NOT AVBL
WAUSAU         CLOUDY    33  32  96 S15       29.86S FOG
MOSINEE        NOT AVBL
MARSHFIELD     CLOUDY    34  32  92 S13       29.85S FOG
WISC RAPIDS    CLOUDY    35  30  82 S9        29.89F
STEVENS POINT  NOT AVBL
WAUPACA        NOT AVBL
SHAWANO        NOT AVBL
CLINTONVILLE   NOT AVBL
$$

WIZ038-039-048-051-220700-
FOX VALLEY

CITY           SKY/WX    TMP DP  RH WIND       PRES   REMARKS
NWS GREEN BAY  CLOUDY    36  30  79 S15       29.96F
APPLETON       NOT AVBL
OSHKOSH        CLOUDY    35  29  78 S10       29.95F
FOND DU LAC    CLOUDY    35  29  78 S10       29.96F
$$

WIZ022-050-052-220700-
EAST CENTRAL WISCONSIN

CITY           SKY/WX    TMP DP  RH WIND       PRES   REMARKS
STURGEON BAY   CLOUDY    36  30  80 S17       29.98F
MANITOWOC      NOT AVBL
SHEBOYGAN      CLOUDY    36  30  79 S14       29.99F
$$

LMZ563-521-522-541>543-220700-
LAKESHORE

STATION/POSITION TIME  TEMP    WIND        PRES    VSBY  WAVE
                       AIR SEA DIR/SP/G                  HT/PER
                 (UTC) (F)     (DEG/KT/KT) (MB)    (MI)  (FT/S)
SHEBOYGAN LKSHOR 0500   38 36  190/ 21/ 24 1016.8F
KEWAUNEE LKSHORE 0500   37     180/ 19/ 21 1014.8F
ALGOMA MARINA    0500          220/ 26/ 30   N/A
NORTHPORT PIER   0500   36     160/ 12/ 19 1015.9S
SISTER BAY LKSHO 0500          180/ 18/ 24   N/A
CHAMBERS ISLAND  0500   37     150/  8/ 17 1015.2F
MENOMINEE LKSHOR 0500   36     170/ 12/ 16 1015.5R
$$



USA.gov is the U.S. government's official web portal to all federal, state and local government web resources and services.